Wetbulb
57.29 54.20 53.53 51.87 45.21 43.99 41.17 44.36 47.31 47.12 48.44 51.30 53.74 52.47 52.89 54.12 52.55 46.30 62.67 65.62 66.75 67.59 69.38 69.15 69.08 69.95 69.25 69.48 70.53 69.92 69.35 68.11 68.78 70.21 70.18 69.70 69.34 69.34 69.34 69.53 70.17 69.15 68.91 68.77 68.30 68.43 68.09 67.76 67.54
53.83 53.92 52.78 47.98 41.63 39.05 40.78 44.16 45.93 48.00 50.83 53.00 52.94 53.38 52.11 53.00 58.80 59.93 62.69 66.28 67.26 68.60 69.17 68.20 68.40 69.69 69.30 69.30 70.31 69.98 69.76 68.40 68.34 68.46 69.73 68.79 68.20 68.18 68.16 68.10 69.44 69.04 68.35 68.53 68.48 68.11 67.66 67.12 66.79
53.91 52.59 50.61 43.54 39.57 38.94 40.60 43.33 47.68 49.58 51.31 50.63 51.88 54.02 53.53 54.54 59.69 61.52 64.75 66.68 67.99 67.82 68.96 68.23 68.41 69.54 69.74 69.61 69.65 69.97 69.67 69.18 68.67 67.91 68.19 67.97 67.44 67.14 67.04 67.43 68.21 68.49 68.17 68.25 67.92 67.83 67.40 66.57 66.04
50.73 50.24 47.68 41.60 40.53 43.47 43.32 44.09 47.69 49.51 49.80 51.43 53.06 51.96 56.25 59.74 61.26 63.42 66.31 67.12 67.22 67.24 68.74 68.35 68.97 69.62 69.75 69.63 69.39 69.71 69.45 69.46 69.23 68.34 67.75 67.72 67.40 67.05 66.78 66.65 67.08 67.05 66.37 67.19 67.05 66.91 66.40 65.76 65.24
48.99 48.25 43.07 40.60 41.04 43.23 43.60 45.64 48.27 47.64 47.71 50.45 51.60 51.07 54.61 60.45 63.76 65.40 66.01 66.67 66.05 66.58 68.59 68.87 68.76 69.23 69.64 69.48 69.17 69.50 69.21 69.32 70.13 69.21 68.23 68.60 67.89 67.56 67.19 65.84 65.83 66.05 65.77 66.02 66.34 66.21 65.81 65.01 64.39
45.41 46.30 41.33 39.93 41.21 42.76 44.64 46.95 47.83 47.01 47.49 49.93 51.93 52.29 55.38 62.18 63.02 64.33 65.85 65.78 66.44 66.35 68.32 68.94 66.13 67.42 68.48 68.84 69.20 69.23 69.49 69.11 69.14 68.87 68.95 68.33 67.89 67.42 66.88 65.92 65.40 65.25 65.70 65.72 66.10 65.51 64.94 64.20 63.65
43.73 42.40 40.49 40.62 41.14 42.29 46.08 46.68 45.98 46.20 46.93 49.27 53.62 50.20 55.30 59.86 63.45 64.58 64.94 65.37 65.81 66.69 67.84 67.58 67.95 66.83 65.68 66.92 67.21 67.89 68.57 68.55 68.48 68.45 68.25 68.09 67.61 67.26 66.89 66.12 65.45 64.62 64.81 64.74 64.81 64.85 64.41 63.55 62.80
44.18 42.72 38.57 39.27 40.36 41.83 45.14 45.94 47.14 47.52 46.81 52.93 55.15 49.78 51.94 58.89 63.55 64.12 64.29 64.36 64.91 65.64 66.68 67.26 66.87 67.36 67.14 67.41 64.41 65.28 66.45 66.80 67.04 66.05 65.20 64.85 64.59 64.37 64.30 63.63 65.29 64.36 63.91 64.00 63.98 64.11 63.54 62.67 61.90
46.50 40.31 37.35 39.73 39.80 42.63 43.61 45.41 45.26 47.29 50.34 50.63 53.36 52.77 55.56 62.63 63.41 63.17 62.74 62.30 62.57 63.56 64.87 66.10 66.26 66.48 66.25 66.15 64.22 63.65 63.81 64.15 63.97 63.08 61.45 62.29 64.70 64.00 63.41 62.60 64.32 64.44 63.62 63.09 62.59 62.58 61.82 60.89 60.33
44.10 38.83 39.75 42.66 42.49 41.88 43.24 44.69 44.71 45.86 47.19 47.99 51.47 56.51 60.29 61.37 61.98 61.42 60.97 59.87 60.46 61.06 62.81 64.79 65.69 65.90 65.58 65.12 65.24 65.66 64.82 64.59 64.20 63.10 62.24 62.94 63.26 63.50 62.90 61.02 61.55 62.22 62.01 62.76 61.83 60.69 58.50 57.61 58.04
42.42 39.38 41.28 43.08 43.69 43.87 43.38 42.70 44.56 44.56 43.81 48.20 49.27 54.10 58.79 60.48 61.15 60.51 60.74 60.95 60.45 61.52 62.14 63.67 64.48 65.42 65.47 64.89 64.18 64.27 64.01 62.32 62.00 62.07 61.09 61.28 61.34 62.51 62.65 62.28 61.33 61.13 57.41 58.75 58.29 58.26 57.93 57.63 57.86
42.11 43.42 42.61 43.98 43.81 43.46 42.99 43.44 43.18 44.25 46.46 47.73 50.77 56.76 58.85 59.43 60.10 60.74 60.50 60.97 61.08 60.96 61.76 62.44 62.97 64.02 65.17 64.46 63.56 63.30 62.79 62.06 60.64 60.95 60.24 60.18 60.33 60.44 60.34 60.01 59.46 59.42 58.94 57.92 58.08 58.08 57.51 57.26 56.83
42.76 43.12 42.51 42.52 42.32 42.43 43.02 42.13 42.71 43.43 45.55 48.20 52.96 57.80 58.70 59.85 60.67 61.32 61.99 62.04 61.80 60.45 61.12 61.77 62.60 63.24 63.79 64.37 63.85 62.79 62.23 61.59 61.36 60.09 60.01 59.91 59.58 59.33 58.89 58.59 58.52 58.53 58.14 57.78 57.64 57.65 57.38 57.05 56.74
44.92 44.34 42.52 42.37 41.83 42.53 41.52 40.90 41.69 44.00 48.14 51.97 55.18 56.00 58.09 59.38 60.25 60.70 60.88 60.99 61.39 61.23 61.28 62.24 62.69 63.35 63.64 63.52 63.66 63.29 62.34 61.75 60.76 60.46 59.91 59.62 59.65 59.21 58.69 58.27 57.95 57.60 57.56 57.33 57.20 57.19 57.02 56.72 56.30
45.18 42.33 43.18 42.89 41.51 40.62 42.29 39.39 40.88 43.47 48.53 50.88 54.00 55.29 56.63 58.79 60.35 60.26 61.19 61.05 61.67 61.62 61.82 61.79 62.58 63.21 62.99 62.81 62.95 62.84 62.67 61.74 60.92 60.18 59.97 59.57 59.46 59.23 58.90 58.45 57.78 57.66 57.04 56.87 56.81 56.31 56.15 56.00 55.16
41.74 41.50 40.15 42.29 41.32 40.73 42.83 37.68 42.89 43.30 45.29 47.43 51.81 53.72 55.42 56.61 58.86 60.33 61.20 61.71 61.79 62.13 61.54 62.07 62.56 62.31 62.68 62.60 62.56 62.24 61.95 62.42 61.87 60.80 59.93 59.45 59.54 59.57 59.03 58.47 58.00 57.71 56.84 56.78 56.44 56.18 55.62 55.29 54.91
36.53 33.74 35.28 39.52 41.01 39.75 40.15 38.73 42.07 41.84 42.85 43.53 48.00 51.97 54.14 55.42 56.82 58.33 60.00 60.81 61.21 62.11 62.24 61.99 62.53 61.95 62.05 62.63 62.90 62.63 62.61 62.54 62.86 61.98 60.46 59.36 58.92 59.11 58.89 58.61 58.68 57.77 56.91 56.29 55.80 55.26 54.82 54.40 54.26
32.37 32.53 34.01 36.10 39.87 37.97 36.16 38.14 41.92 40.62 41.05 42.57 43.25 48.44 51.76 53.84 56.22 58.70 58.87 59.86 60.73 61.58 62.09 62.71 62.69 62.78 62.11 62.37 62.42 62.31 62.39 62.55 63.16 63.06 62.30 60.94 59.34 58.41 58.37 58.06 57.27 56.57 56.54 56.14 55.02 54.88 53.49 53.90 53.72
38.29 35.76 33.55 35.49 39.50 37.82 36.32 36.22 40.02 40.31 38.49 39.21 39.92 40.88 45.96 51.85 56.01 57.28 58.31 59.28 60.03 60.45 61.04 61.64 61.98 62.76 62.43 61.83 61.31 61.13 61.15 62.11 62.77 63.00 62.51 61.69 60.66 59.05 58.38 58.31 57.26 56.54 56.09 55.69 54.24 53.35 53.71 53.39 52.32
34.42 33.30 32.62 35.01 36.01 36.13 34.86 34.95 38.66 38.26 39.14 39.47 40.08 39.96 41.37 43.83 47.42 51.34 54.50 57.40 58.77 60.29 60.54 60.71 61.43 62.12 62.34 62.42 62.45 62.10 62.01 62.27 62.96 63.34 62.92 62.21 61.23 59.94 58.90 58.62 57.73 56.72 56.13 54.83 53.73 51.89 50.88 52.73 50.77
31.98 31.46 31.72 33.68 33.99 34.35 33.11 32.82 35.39 38.77 37.98 39.09 39.51 40.76 41.07 42.69 44.50 45.86 46.70 51.32 56.70 58.38 59.78 60.62 61.12 61.62 62.12 62.66 62.08 60.06 60.98 61.02 61.29 61.55 62.25 62.37 62.08 61.04 59.72 58.86 58.60 57.34 56.60 55.74 55.05 53.45 52.70 52.55 50.66
29.60 34.85 34.37 33.19 31.63 28.29 32.16 26.31 32.76 36.14 36.65 36.57 39.53 39.63 41.20 42.03 43.23 44.10 43.81 43.72 47.90 54.54 58.64 60.05 61.21 61.37 61.57 62.43 61.39 61.03 60.84 60.05 61.27 61.67 62.00 61.38 61.77 61.35 60.38 59.84 59.07 58.06 57.00 56.43 55.86 54.95 54.33 53.34 52.71
33.35 35.01 33.66 32.44 29.85 27.26 26.90 26.17 29.72 32.61 32.85 35.84 38.27 39.29 41.62 43.96 44.77 43.71 42.91 43.70 42.80 44.71 51.81 57.45 59.27 60.73 61.33 61.67 61.98 61.28 60.99 61.66 61.83 59.54 60.11 60.52 60.29 60.67 59.96 59.76 58.83 58.07 57.33 57.37 57.22 55.27 54.18 53.61 54.30
35.18 32.94 31.51 28.44 28.02 23.73 27.65 28.29 27.33 31.48 35.03 37.43 39.32 39.50 42.20 42.86 40.54 40.73 40.68 40.78 41.31 41.52 44.03 51.52 56.55 58.58 60.06 60.83 61.41 61.08 60.99 60.81 59.04 58.87 58.99 59.36 59.80 59.85 60.13 59.49 58.99 58.69 58.18 57.05 56.60 56.15 55.78 55.45 53.61
33.33 32.21 24.90 23.08 22.13 22.84 25.72 24.75 31.96 35.08 36.84 37.26 39.64 40.08 38.63 38.65 39.03 38.67 38.51 38.70 39.13 40.35 41.14 46.70 53.53 56.08 58.69 59.77 60.30 60.78 60.77 60.61 59.55 59.44 59.01 58.42 59.03 59.30 59.65 59.31 58.72 58.47 59.07 57.42 56.12 56.16 54.36 53.54 53.75
32.04 31.77 25.20 18.74 18.54 22.46 25.43 24.67 30.90 35.68 37.41 37.19 37.78 37.41 37.33 37.59 39.70 40.09 39.40 38.52 40.22 41.40 42.53 44.44 49.94 54.12 57.66 58.95 59.74 60.74 60.91 60.59 60.50 60.49 59.23 59.10 59.48 60.00 60.18 59.85 59.16 57.81 57.54 57.30 55.67 55.67 54.77 53.73 52.35
30.87 28.93 33.33 24.77 13.37 19.18 24.24 27.47 32.57 35.76 36.69 34.77 35.83 35.75 37.60 37.48 38.10 39.97 40.18 40.45 42.19 43.40 44.28 44.74 45.59 49.47 52.95 56.56 58.50 59.31 60.05 60.38 60.26 59.65 59.47 59.69 59.54 58.42 58.70 58.57 57.52 57.14 55.82 55.48 55.29 54.11 51.65 50.84 50.33
34.14 36.04 29.18 26.79 17.21 16.12 22.27 24.03 27.97 32.38 34.47 34.25 35.70 35.43 36.25 36.68 37.46 39.15 40.08 41.41 43.41 44.70 45.43 45.91 45.69 45.53 45.98 47.31 49.16 50.79 52.22 54.39 57.79 58.57 58.26 58.61 58.38 56.47 56.26 57.04 56.74 55.16 54.85 53.57 52.32 49.62 48.77 47.25 46.78
30.83 30.50 29.02 31.14 27.50 20.73 16.59 24.66 30.34 33.53 33.33 34.07 34.58 34.93 36.48 36.51 37.13 38.73 39.96 41.70 42.76 44.25 45.61 46.04 46.33 46.38 46.49 45.98 45.21 44.01 43.84 43.77 46.89 54.47 56.51 56.23 54.85 54.76 54.09 53.37 51.96 50.42 49.99 49.32 48.32 46.69 45.97 44.94 44.71
34.17 33.03 34.22 29.30 22.30 23.10 22.58 25.44 32.73 32.78 33.51 33.37 33.93 35.55 35.31 35.91 36.82 38.04 39.78 40.63 41.22 43.43 45.30 46.04 46.12 46.61 46.59 47.02 46.98 48.55 48.81 49.00 47.12 50.29 52.75 52.90 53.60 52.57 51.00 49.71 48.30 47.89 47.72 47.71 46.82 45.16 45.09 44.54 42.57
MSLP
1015.04 1015.02 1015.03 1015.39 1017.26 1018.31 1018.77 1019.00 1018.92 1019.17 1019.62 1019.50 1019.66 1020.26 1020.35 1020.60 1021.15 1021.88 1021.61 1021.62 1021.53 1021.83 1022.16 1022.36 1022.54 1022.72 1022.81 1022.76 1022.86 1022.98 1023.10 1023.18 1023.12 1023.23 1023.28 1023.38 1023.45 1023.47 1023.54 1023.58 1023.53 1023.64 1023.64 1023.74 1023.84 1023.93 1023.95 1024.02 1024.07
1015.13 1014.75 1015.30 1016.67 1017.95 1018.82 1019.10 1018.96 1019.02 1019.05 1019.27 1019.54 1019.78 1020.14 1020.38 1020.80 1021.00 1021.36 1021.59 1021.64 1021.70 1022.01 1022.34 1022.53 1022.76 1022.97 1023.12 1023.13 1023.13 1023.23 1023.34 1023.50 1023.48 1023.42 1023.53 1023.71 1023.85 1023.96 1023.91 1023.92 1023.96 1024.11 1024.16 1024.15 1024.35 1024.46 1024.56 1024.64 1024.72
1015.01 1015.14 1016.43 1017.64 1018.74 1018.90 1018.93 1018.87 1018.84 1019.26 1019.42 1019.49 1019.93 1020.15 1020.38 1020.62 1021.01 1021.16 1021.26 1021.36 1021.79 1022.24 1022.48 1022.73 1022.80 1023.16 1023.34 1023.41 1023.43 1023.44 1023.64 1023.76 1023.83 1023.98 1024.08 1024.18 1024.25 1024.35 1024.43 1024.45 1024.58 1024.63 1024.71 1024.77 1024.91 1025.08 1025.21 1025.27 1025.33
1015.45 1016.22 1017.93 1018.19 1018.81 1018.67 1018.65 1018.67 1018.84 1019.44 1019.51 1019.48 1019.73 1020.34 1020.55 1020.52 1020.55 1020.83 1021.19 1021.49 1021.83 1022.39 1022.58 1022.93 1023.01 1023.32 1023.59 1023.68 1023.71 1023.70 1023.78 1023.88 1024.16 1024.33 1024.43 1024.51 1024.60 1024.74 1024.81 1024.93 1025.08 1025.20 1025.29 1025.41 1025.40 1025.52 1025.63 1025.70 1025.77
1016.37 1017.27 1018.40 1018.92 1018.94 1018.68 1018.61 1018.54 1018.86 1019.36 1019.39 1019.62 1019.85 1020.41 1020.64 1020.78 1020.67 1020.90 1021.21 1021.56 1022.10 1022.53 1022.79 1023.08 1023.28 1023.53 1023.77 1024.02 1024.05 1024.11 1024.14 1024.20 1024.31 1024.62 1024.76 1024.87 1025.10 1025.25 1025.34 1025.51 1025.69 1025.81 1025.85 1025.91 1025.92 1026.06 1026.17 1026.24 1026.30
1017.39 1018.11 1019.03 1019.43 1019.10 1018.66 1018.45 1018.39 1018.68 1019.22 1019.44 1019.82 1020.05 1020.50 1020.72 1020.90 1020.92 1021.19 1021.39 1021.72 1022.27 1022.65 1022.95 1023.22 1023.47 1023.69 1023.95 1024.11 1024.30 1024.36 1024.34 1024.48 1024.55 1024.76 1025.01 1025.25 1025.44 1025.58 1025.75 1025.99 1026.14 1026.21 1026.30 1026.43 1026.48 1026.63 1026.67 1026.70 1026.77
1017.76 1018.78 1019.30 1019.34 1019.10 1018.69 1018.29 1018.45 1018.69 1018.98 1019.34 1019.64 1019.72 1020.53 1020.94 1021.13 1021.04 1021.41 1021.60 1021.91 1022.39 1022.89 1023.02 1023.35 1023.63 1023.78 1024.10 1024.28 1024.46 1024.60 1024.65 1024.74 1024.92 1025.05 1025.24 1025.50 1025.71 1025.93 1026.17 1026.31 1026.50 1026.67 1026.78 1026.92 1026.96 1026.91 1026.97 1027.06 1027.12
1018.02 1018.95 1019.56 1019.45 1019.12 1018.54 1018.25 1018.46 1018.22 1018.51 1019.10 1019.44 1019.51 1020.06 1020.60 1020.62 1021.06 1021.69 1022.02 1022.36 1022.64 1023.05 1023.16 1023.42 1023.71 1023.88 1024.14 1024.47 1024.73 1024.89 1025.01 1025.17 1025.26 1025.40 1025.61 1025.85 1026.21 1026.47 1026.62 1026.71 1026.81 1026.99 1027.11 1027.16 1027.22 1027.25 1027.34 1027.41 1027.47
1017.93 1019.00 1019.43 1019.23 1019.11 1018.29 1018.27 1018.38 1018.46 1018.50 1018.86 1019.36 1019.41 1019.70 1019.96 1020.36 1021.10 1021.73 1022.27 1022.61 1022.82 1023.17 1023.36 1023.49 1023.79 1023.98 1024.25 1024.54 1024.85 1025.04 1025.22 1025.42 1025.66 1025.91 1026.10 1026.23 1026.46 1026.70 1026.90 1027.16 1027.26 1027.32 1027.42 1027.52 1027.58 1027.65 1027.76 1027.86 1027.91
1018.00 1018.83 1018.87 1018.43 1018.30 1018.04 1018.20 1018.35 1018.22 1018.58 1018.97 1019.29 1019.54 1019.86 1020.13 1020.49 1020.86 1021.43 1021.87 1022.24 1022.59 1022.91 1023.31 1023.52 1023.69 1023.95 1024.31 1024.60 1024.95 1025.26 1025.48 1025.72 1025.94 1026.06 1026.30 1026.50 1026.73 1026.91 1027.16 1027.38 1027.57 1027.73 1027.76 1027.78 1027.87 1027.91 1028.00 1028.00 1028.02
1018.04 1018.31 1018.24 1017.98 1017.97 1017.95 1018.04 1018.21 1018.32 1018.29 1018.98 1018.38 1018.63 1019.53 1020.13 1020.49 1020.72 1021.12 1021.54 1021.79 1022.14 1022.55 1023.10 1023.44 1023.82 1023.82 1024.23 1024.70 1025.09 1025.39 1025.70 1026.01 1026.20 1026.48 1026.68 1026.86 1026.96 1027.14 1027.30 1027.53 1027.73 1027.87 1028.10 1028.14 1028.15 1028.19 1028.28 1028.33 1028.22
1018.14 1017.87 1017.68 1017.84 1017.74 1017.95 1017.96 1018.05 1018.20 1018.24 1017.63 1017.70 1017.98 1018.92 1019.79 1020.22 1020.28 1020.50 1020.99 1021.45 1021.86 1022.32 1022.77 1023.24 1023.82 1023.86 1024.06 1024.58 1025.05 1025.24 1025.60 1025.92 1026.28 1026.45 1026.75 1026.92 1027.16 1027.47 1027.65 1027.78 1027.95 1027.99 1028.05 1028.17 1028.30 1028.33 1028.37 1028.34 1028.33
1017.84 1017.72 1017.67 1017.63 1017.66 1017.78 1017.96 1017.94 1018.07 1017.75 1017.74 1017.85 1018.18 1018.98 1019.47 1019.79 1020.03 1020.30 1020.66 1021.25 1021.71 1022.11 1022.53 1022.89 1023.40 1023.76 1023.90 1024.29 1024.74 1025.13 1025.38 1025.58 1025.87 1026.28 1026.60 1026.82 1027.03 1027.23 1027.50 1027.65 1027.86 1028.14 1028.29 1028.21 1028.20 1028.23 1028.27 1028.38 1028.36
1017.41 1017.67 1017.66 1017.66 1017.78 1017.53 1017.91 1017.95 1018.03 1017.37 1017.76 1018.36 1018.58 1018.86 1019.29 1019.35 1019.52 1020.05 1020.38 1020.70 1021.08 1021.62 1021.97 1022.43 1022.87 1023.31 1023.55 1023.73 1024.13 1024.59 1025.06 1025.38 1025.69 1026.02 1026.21 1026.49 1026.70 1026.94 1027.23 1027.55 1027.79 1027.93 1028.08 1028.23 1028.20 1028.23 1028.28 1028.30 1028.40
1017.57 1017.96 1017.91 1017.70 1017.76 1017.66 1017.77 1018.27 1017.87 1017.40 1017.77 1018.39 1018.87 1019.02 1019.27 1019.38 1019.63 1019.49 1019.92 1020.45 1020.74 1021.15 1021.65 1021.92 1022.41 1022.95 1023.18 1023.51 1023.76 1024.23 1024.67 1025.06 1025.38 1025.67 1025.98 1026.21 1026.40 1026.67 1026.94 1027.19 1027.41 1027.59 1027.78 1027.91 1028.07 1028.15 1028.26 1028.22 1028.36
1018.06 1018.41 1018.49 1017.74 1017.59 1017.73 1017.76 1017.97 1017.33 1017.51 1017.79 1018.13 1018.62 1019.13 1019.19 1019.31 1019.17 1019.37 1019.57 1020.04 1020.35 1020.75 1021.12 1021.59 1021.83 1022.46 1022.90 1023.10 1023.45 1023.77 1024.23 1024.63 1024.77 1025.21 1025.52 1025.94 1026.24 1026.46 1026.63 1026.78 1026.98 1027.16 1027.48 1027.63 1027.72 1027.86 1028.04 1028.22 1028.30
1018.70 1018.89 1018.79 1018.17 1017.82 1017.94 1018.03 1017.82 1017.11 1017.52 1018.07 1018.10 1018.38 1018.73 1018.94 1019.02 1019.02 1019.00 1019.10 1019.44 1019.81 1020.20 1020.67 1021.19 1021.57 1021.91 1022.23 1022.74 1023.12 1023.36 1023.71 1024.04 1024.15 1024.54 1024.91 1025.19 1025.56 1025.79 1026.12 1026.24 1026.46 1026.87 1027.15 1027.33 1027.63 1027.88 1028.04 1027.89 1027.90
1018.88 1019.10 1018.76 1018.44 1018.23 1017.98 1018.38 1018.18 1017.23 1017.40 1017.90 1018.06 1018.32 1018.29 1018.42 1018.54 1017.80 1018.15 1018.52 1018.93 1019.41 1019.78 1020.20 1020.61 1021.05 1021.23 1021.72 1022.20 1022.81 1023.15 1023.32 1023.50 1023.54 1023.64 1023.97 1024.21 1024.65 1025.10 1025.55 1025.84 1026.28 1026.69 1026.97 1027.12 1027.41 1027.43 1027.65 1027.85 1027.65
1018.61 1018.86 1018.93 1018.61 1018.15 1018.14 1018.23 1018.26 1017.46 1017.46 1017.76 1017.78 1017.97 1017.88 1017.68 1017.58 1017.02 1017.70 1018.03 1018.39 1018.78 1019.29 1019.59 1019.76 1020.36 1020.59 1021.16 1021.79 1022.34 1022.74 1022.66 1022.80 1022.85 1022.92 1023.19 1023.57 1023.94 1024.41 1024.87 1025.13 1025.41 1025.99 1026.34 1026.48 1027.05 1027.42 1027.50 1027.55 1027.61
1018.79 1018.96 1018.97 1018.78 1018.37 1018.70 1018.45 1018.11 1017.40 1017.27 1017.13 1017.02 1016.94 1017.02 1016.80 1016.91 1016.84 1016.94 1017.39 1017.98 1018.15 1018.27 1018.61 1019.05 1019.14 1019.64 1020.09 1020.64 1020.98 1021.36 1021.74 1022.02 1021.88 1022.12 1022.47 1022.78 1023.25 1023.66 1024.07 1024.56 1024.89 1025.21 1025.69 1026.12 1026.43 1026.72 1027.10 1027.13 1027.22
1019.03 1019.07 1019.23 1019.31 1019.01 1019.08 1019.03 1018.18 1017.15 1016.31 1016.43 1016.32 1016.23 1016.12 1015.99 1015.97 1016.06 1016.02 1016.50 1016.75 1017.30 1017.39 1017.44 1017.71 1018.20 1018.78 1019.14 1019.71 1020.35 1021.01 1021.37 1021.65 1021.80 1021.96 1022.07 1022.22 1022.39 1022.75 1023.15 1023.58 1024.01 1024.45 1024.84 1025.20 1025.48 1025.97 1026.35 1026.56 1026.88
1019.11 1018.93 1019.15 1019.58 1019.86 1019.99 1019.60 1018.20 1016.56 1015.91 1015.85 1015.76 1015.47 1015.51 1015.18 1014.93 1014.92 1015.09 1015.58 1016.04 1016.15 1015.94 1016.50 1016.76 1017.23 1017.69 1018.06 1018.67 1019.31 1019.70 1020.03 1020.45 1020.55 1020.77 1021.17 1021.43 1021.83 1022.15 1022.62 1022.91 1023.26 1023.60 1024.06 1024.39 1024.63 1024.99 1025.46 1026.00 1026.10
1018.60 1018.83 1019.46 1019.95 1020.48 1020.56 1020.25 1019.88 1016.47 1015.86 1015.81 1015.25 1014.60 1014.37 1013.84 1013.71 1013.49 1013.76 1014.46 1014.65 1015.20 1015.63 1015.90 1016.11 1016.41 1017.02 1017.27 1017.76 1018.15 1018.68 1019.17 1019.42 1019.95 1020.45 1020.78 1021.02 1021.43 1021.78 1022.14 1022.40 1022.79 1023.19 1023.49 1023.51 1023.82 1024.34 1024.65 1025.01 1025.26
1018.48 1019.34 1020.25 1021.07 1021.48 1021.13 1020.21 1019.92 1016.84 1015.82 1014.53 1013.71 1013.06 1012.77 1012.78 1012.85 1013.37 1013.70 1013.83 1014.41 1014.75 1014.89 1015.62 1015.97 1016.14 1016.50 1016.89 1017.33 1017.71 1018.02 1018.32 1018.90 1019.48 1019.98 1020.56 1020.88 1021.34 1021.61 1021.70 1021.89 1022.23 1022.42 1022.66 1022.97 1023.22 1023.54 1024.06 1024.48 1024.84
1018.18 1019.64 1021.12 1022.28 1022.22 1021.24 1020.40 1019.99 1016.19 1014.79 1013.51 1013.02 1012.73 1012.55 1012.73 1013.09 1013.49 1013.74 1014.13 1014.21 1014.43 1014.56 1014.72 1015.25 1015.73 1015.99 1016.26 1016.68 1017.05 1017.34 1017.71 1018.40 1018.82 1019.35 1019.86 1020.49 1020.83 1021.16 1021.13 1021.35 1021.62 1021.86 1022.02 1022.31 1022.70 1023.09 1023.49 1023.88 1024.35
1017.64 1018.53 1019.77 1021.47 1022.36 1021.53 1020.84 1018.38 1015.08 1013.50 1012.68 1012.61 1012.53 1012.59 1012.89 1013.10 1013.41 1013.94 1014.02 1014.04 1014.15 1014.64 1014.80 1015.40 1015.65 1015.63 1015.81 1016.33 1016.81 1017.10 1017.57 1018.06 1018.52 1018.90 1019.42 1019.83 1020.13 1020.34 1020.32 1020.77 1021.06 1021.43 1021.76 1022.21 1022.67 1022.89 1023.26 1023.62 1024.07
1017.25 1017.82 1018.57 1020.64 1022.64 1021.99 1019.47 1017.26 1015.09 1012.93 1012.04 1012.30 1012.35 1012.85 1012.66 1013.03 1013.13 1013.79 1014.26 1014.12 1014.32 1014.47 1014.66 1015.29 1015.36 1015.68 1015.96 1016.17 1016.42 1016.74 1017.28 1017.81 1018.24 1018.59 1019.06 1019.31 1019.64 1019.85 1020.11 1020.40 1020.63 1020.98 1021.43 1021.82 1022.37 1022.83 1023.30 1023.70 1024.11
1015.03 1016.43 1018.20 1019.45 1021.10 1021.21 1018.84 1017.48 1015.07 1013.01 1012.35 1012.35 1012.15 1012.22 1012.68 1012.71 1013.03 1013.91 1014.75 1015.06 1014.55 1014.98 1015.03 1015.18 1015.39 1015.78 1016.09 1016.38 1016.43 1016.73 1017.12 1017.63 1017.90 1018.15 1018.54 1018.88 1019.18 1019.50 1019.88 1020.21 1020.53 1021.02 1021.43 1021.69 1022.24 1022.98 1023.30 1023.74 1024.22
1015.39 1015.66 1016.58 1017.62 1018.97 1019.06 1018.57 1015.94 1013.15 1012.45 1012.61 1012.14 1012.19 1011.91 1012.02 1012.63 1013.26 1013.82 1014.53 1015.12 1015.45 1015.38 1015.74 1015.47 1015.70 1015.91 1016.22 1016.36 1016.53 1016.94 1017.37 1017.77 1018.11 1018.16 1018.31 1018.72 1019.08 1019.37 1019.78 1020.32 1020.96 1021.39 1021.78 1021.98 1022.34 1023.06 1023.58 1023.96 1024.44
1013.85 1014.04 1014.96 1016.28 1017.85 1018.17 1017.41 1013.60 1011.92 1011.78 1011.83 1011.61 1011.66 1011.58 1011.73 1012.50 1013.21 1013.97 1014.52 1015.07 1015.40 1015.73 1015.82 1015.98 1016.12 1016.04 1016.18 1016.33 1016.74 1017.06 1017.50 1017.95 1018.02 1018.23 1018.44 1018.77 1019.17 1019.33 1019.88 1020.39 1021.01 1021.48 1021.74 1022.02 1022.43 1023.13 1023.61 1024.06 1024.44
Wind_Speed
5 1 2 5 5 5 2 3 0 4 4 3 6 5 5 3 3 1 1 5 10 11 8 12 12 11 10 9 12 14 13 13 11 14 14 15 15 16 16 15 16 16 16 16 18 17 18 18 18
4 2 5 3 6 3 2 2 5 4 3 7 5 3 2 2 2 5 9 6 12 10 8 10 11 10 9 10 14 13 11 15 12 12 14 14 13 14 16 15 15 14 16 16 16 17 17 17 17
1 5 4 5 3 4 3 4 5 3 6 3 4 2 3 3 2 10 2 13 12 10 9 10 12 11 9 11 12 13 11 13 13 13 12 12 14 15 15 14 15 16 15 16 15 16 16 16 16
4 5 4 5 2 2 4 3 3 7 2 1 3 4 0 2 6 5 12 14 13 10 10 10 12 11 9 10 10 11 11 12 13 13 14 14 15 14 14 14 14 14 14 14 14 15 15 15 15
5 3 4 3 3 2 3 2 8 5 3 3 2 4 1 1 4 12 14 13 13 10 9 10 10 11 10 9 9 8 11 11 12 12 11 12 15 13 13 14 13 13 13 12 13 14 14 14 14
4 3 4 2 4 2 4 4 7 4 3 3 4 6 3 1 9 11 13 13 11 11 9 9 9 10 9 10 9 9 10 11 13 12 13 14 14 13 12 13 12 12 12 12 12 13 13 13 14
6 4 4 4 3 4 3 6 6 6 5 4 6 5 0 4 6 11 11 11 10 9 9 8 8 9 8 9 9 8 9 10 11 11 11 12 11 11 11 10 11 11 11 12 11 11 12 13 13
6 5 4 3 3 5 3 5 4 5 5 3 3 4 3 4 10 9 9 9 9 8 8 8 8 8 7 7 7 8 8 9 9 9 9 10 10 10 10 9 10 11 11 11 10 11 11 12 13
3 4 2 4 5 5 3 5 0 1 6 2 5 4 1 13 13 9 9 8 9 7 8 6 8 7 7 7 6 7 7 7 8 8 9 8 6 7 7 7 9 9 10 11 11 10 10 11 11
4 4 8 5 4 2 2 4 8 5 3 3 2 2 7 16 15 13 12 12 13 12 9 7 7 8 7 5 6 5 5 4 4 6 6 5 5 5 5 7 8 8 9 10 9 9 8 6 3
4 5 5 3 3 1 1 1 5 7 3 8 10 8 12 14 15 13 13 14 14 13 10 9 7 8 7 6 4 3 3 3 3 4 4 4 4 3 3 3 3 3 5 3 4 4 3 4 3
1 4 7 1 2 2 2 3 4 6 6 2 7 12 15 18 17 16 15 15 15 14 12 12 11 10 7 5 4 5 4 4 3 4 5 4 3 3 3 2 2 2 2 3 2 2 2 3 3
1 2 5 1 3 3 1 5 6 7 4 3 7 11 16 17 16 13 14 14 14 13 13 13 12 11 10 7 6 5 5 5 5 5 5 4 4 4 3 3 2 1 1 1 2 1 1 1 0
3 5 2 1 2 2 2 2 1 4 5 5 8 11 12 17 18 13 15 16 16 14 13 12 13 12 12 10 8 7 6 6 5 5 6 7 5 5 4 3 3 3 3 2 2 1 1 1 1
4 2 4 2 1 2 4 2 9 4 5 6 7 7 8 11 14 18 17 16 14 10 10 13 13 13 13 13 11 8 7 6 6 6 7 8 7 6 6 4 4 4 3 4 3 2 2 2 2
4 3 1 4 5 2 6 7 9 5 7 9 8 7 7 10 12 12 11 12 11 10 12 11 10 13 12 12 10 8 7 8 7 7 6 9 8 8 6 5 5 4 4 4 3 3 3 3 2
4 4 6 4 5 3 3 6 2 4 5 8 7 7 7 7 8 10 11 12 11 12 11 12 12 13 14 11 9 9 9 8 8 7 7 9 10 10 7 6 6 6 4 4 3 3 3 2 3
6 5 4 5 3 3 1 8 6 4 7 8 6 7 8 10 17 12 11 9 10 11 11 12 11 13 12 8 7 6 6 7 8 8 8 11 8 9 7 5 5 5 4 4 4 5 4 4 3
5 4 5 4 4 4 7 9 13 6 5 7 8 8 9 13 9 7 9 11 10 10 12 13 13 13 10 8 8 7 8 8 8 8 10 9 8 9 9 6 6 6 6 6 5 3 5 4 3
4 3 4 4 1 3 4 11 11 5 7 8 10 9 12 7 7 8 8 10 13 15 14 13 16 14 13 10 9 5 7 6 7 7 8 10 10 10 9 9 7 7 5 6 6 6 3 3 5
4 6 4 5 2 2 3 8 9 8 5 6 7 9 6 12 14 12 12 15 12 15 16 16 16 15 14 14 7 3 2 1 4 5 6 8 11 11 11 11 8 8 7 7 7 7 8 4 3
7 6 4 4 3 4 1 8 6 8 10 6 11 10 14 14 13 10 9 11 16 18 13 15 15 17 15 16 12 14 12 10 9 8 7 8 10 9 9 9 9 8 6 7 8 7 7 5 7
7 6 6 3 2 2 2 3 8 3 5 9 12 15 16 18 17 15 14 13 10 8 12 13 13 14 15 15 16 12 13 10 7 4 8 8 6 8 9 10 9 8 7 9 8 6 9 7 4
10 7 7 5 2 5 8 7 6 6 10 8 10 14 18 16 7 7 6 7 9 7 8 7 12 14 13 14 16 15 15 13 7 7 7 5 4 5 8 8 7 8 8 8 7 7 8 8 6
6 7 1 2 1 7 2 3 10 7 10 9 12 10 7 7 7 7 9 8 8 8 9 8 11 12 12 14 14 15 14 12 11 9 7 6 5 4 8 9 8 7 9 6 6 7 6 7 7
9 9 7 8 5 4 1 10 8 10 11 8 9 8 4 6 5 7 8 7 7 7 6 6 7 8 12 12 12 10 10 7 7 8 6 6 6 6 5 6 6 7 5 5 4 4 4 4 4
6 7 8 7 2 3 6 7 10 12 16 4 10 5 10 9 7 7 6 4 5 5 6 7 7 5 7 10 8 8 7 9 7 7 8 6 6 4 5 5 6 5 5 5 4 3 3 3 3
10 13 6 2 3 5 5 6 8 7 9 7 10 8 8 8 6 2 3 4 0 2 4 5 5 6 6 6 5 4 4 4 4 6 8 8 5 5 5 4 4 5 4 5 6 4 4 6 3
5 7 2 6 6 6 2 8 10 9 5 6 8 8 8 7 6 6 3 0 1 3 1 3 4 5 5 4 4 5 5 5 5 4 4 5 5 5 5 5 6 6 6 6 7 6 6 7 6
2 7 11 9 6 3 3 11 5 8 6 4 8 6 4 4 5 5 5 5 4 5 4 5 4 4 4 5 4 4 4 4 5 5 5 5 5 5 6 7 7 7 7 7 8 8 7 9 8
Wind_Direction
339 355 101 43 56 63 112 195 47 119 154 165 135 151 186 118 161 195 320 168 143 145 158 131 127 127 120 101 105 104 101 89 97 96 96 91 84 82 86 84 80 82 86 89 84 82 78 74 72
324 19 47 77 84 77 264 252 181 182 134 124 101 105 122 123 106 127 133 163 142 138 138 132 124 131 127 107 100 96 92 96 97 101 85 89 88 85 83 77 81 82 82 85 84 81 80 77 75
134 43 71 85 106 157 180 215 172 119 146 145 109 61 144 156 138 161 161 146 136 135 136 139 129 136 126 117 99 104 100 107 102 100 99 98 98 92 89 91 83 82 75 75 84 77 75 74 71
36 20 48 82 203 228 185 200 160 139 253 135 117 117 57 254 161 175 146 145 138 140 141 141 133 134 123 124 110 104 106 100 111 104 106 109 103 93 94 92 76 79 83 79 82 81 80 77 72
31 60 63 70 274 262 248 200 151 152 141 138 140 174 156 70 122 140 146 144 146 146 143 141 132 129 121 120 119 106 109 95 116 116 106 110 108 100 98 93 86 82 83 81 86 84 83 78 73
43 83 82 186 251 246 262 182 144 152 127 137 108 143 167 146 141 153 146 144 146 147 142 140 134 127 125 123 111 107 114 105 104 98 100 108 108 103 95 98 92 87 85 81 83 86 86 82 74
111 87 181 171 250 304 235 150 169 150 143 220 148 129 116 194 168 154 144 134 135 141 141 140 142 137 130 127 122 108 96 97 97 95 94 94 98 95 93 90 93 87 87 80 81 91 88 79 72
105 92 123 223 209 258 175 184 164 152 201 91 158 174 188 187 153 132 128 131 134 147 149 147 143 146 139 141 125 121 114 106 103 97 92 98 93 88 89 87 94 91 91 88 81 94 85 77 72
134 72 169 219 162 240 145 176 47 30 117 206 169 149 178 138 139 132 135 146 152 160 167 156 154 150 145 145 139 125 122 114 103 94 90 93 103 102 98 89 87 87 90 92 82 83 79 74 67
94 129 209 202 210 197 207 212 166 148 119 224 164 50 129 151 157 161 171 173 173 173 180 173 168 159 153 151 146 140 130 129 127 125 120 115 114 111 108 96 87 77 72 77 76 74 77 76 68
173 179 197 226 225 206 183 223 182 133 210 207 196 157 164 167 170 174 184 184 183 178 181 179 180 170 159 160 151 143 143 139 134 136 125 118 119 123 113 112 103 102 74 74 66 65 61 65 61
159 210 158 168 136 103 211 137 206 205 214 297 197 152 165 178 184 184 189 189 185 184 185 186 185 185 163 153 171 166 166 161 161 159 148 144 137 130 128 124 115 119 128 126 90 90 95 90 78
207 219 162 160 253 213 158 234 223 234 246 31 140 150 176 185 190 189 193 192 190 191 188 187 180 183 187 162 170 185 186 180 173 170 169 167 163 166 163 161 159 156 152 164 143 126 119 104 81
211 188 156 145 265 146 197 331 156 268 137 128 160 177 181 188 190 187 196 198 196 197 191 179 181 183 186 189 179 190 195 187 179 184 188 184 181 179 181 183 188 186 195 182 201 210 253 253 285
106 111 349 202 245 147 165 308 236 187 151 168 192 191 189 196 190 200 200 200 195 197 187 182 182 182 186 195 198 199 200 193 191 193 197 195 187 188 190 193 198 204 191 192 201 205 214 244 262
107 64 72 227 171 237 134 263 274 200 172 202 199 201 201 204 207 202 195 198 190 187 186 184 182 185 189 193 196 193 195 198 198 198 195 202 203 201 202 205 211 197 195 204 208 205 241 265 275
43 168 202 290 205 159 169 239 279 162 219 229 209 202 210 222 225 210 203 197 190 192 186 188 186 188 193 198 195 195 193 196 205 198 198 203 205 202 206 209 211 194 199 205 208 215 229 237 248
167 195 205 201 201 114 78 267 258 203 199 237 232 218 213 225 229 215 202 191 191 193 191 194 193 197 194 193 200 201 197 205 204 202 201 195 197 197 196 200 198 185 206 212 203 213 198 245 258
155 148 191 225 227 170 209 234 263 217 232 225 238 233 233 224 231 210 197 194 188 192 199 195 192 198 184 185 190 206 210 205 206 200 198 196 192 190 193 202 185 183 198 198 192 204 224 237 215
148 175 237 298 118 152 273 259 248 199 229 215 221 223 231 238 209 213 195 193 198 205 204 199 204 194 192 192 199 193 188 209 208 198 201 193 192 190 192 201 202 192 193 191 193 182 181 232 191
162 163 190 211 20 229 317 269 233 240 220 235 240 240 222 224 238 228 199 205 205 210 203 205 204 199 195 196 183 142 146 123 188 201 208 211 199 196 192 195 196 194 190 204 202 195 195 226 202
174 203 165 180 100 234 94 278 273 233 234 211 235 233 241 229 235 234 203 202 209 218 206 206 202 202 197 191 190 200 206 208 211 200 205 200 201 202 197 197 203 199 197 202 205 197 205 192 232
207 147 149 120 147 1 314 300 278 7 262 249 237 234 232 237 227 215 209 217 209 206 204 208 202 204 196 196 199 201 211 216 211 184 196 197 199 203 199 203 201 199 200 218 212 196 200 203 224
146 83 55 56 81 267 204 192 250 203 213 224 233 229 228 235 229 243 224 213 222 199 200 192 195 205 195 194 202 204 210 212 193 197 202 202 197 207 215 208 203 213 211 206 211 203 202 213 217
105 111 36 317 242 231 351 238 259 262 243 219 242 260 238 237 253 250 231 219 221 203 198 192 194 202 193 196 197 202 207 206 208 203 200 181 194 205 217 204 206 211 217 206 178 194 204 206 217
168 152 158 195 204 252 21 240 245 237 277 260 228 240 252 244 257 267 255 225 207 210 184 185 194 191 196 201 206 200 201 201 207 201 189 199 202 212 197 196 192 204 197 185 184 199 200 191 198
187 191 161 110 53 39 229 290 291 268 270 275 276 218 237 258 247 258 257 232 194 174 167 188 183 181 186 204 199 183 181 199 198 180 192 200 202 202 187 191 192 191 177 167 170 172 154 151 158
174 147 136 102 172 256 276 273 237 281 264 314 270 246 255 242 225 242 267 239 99 170 124 129 143 170 177 182 186 184 182 191 182 177 185 192 188 171 185 181 162 146 130 129 115 107 125 115 103
137 180 126 129 168 177 250 258 216 227 269 279 287 255 229 240 216 194 197 238 138 63 132 122 150 161 161 158 152 176 203 215 216 206 173 174 168 167 150 138 126 118 124 126 121 120 126 120 117
203 176 174 184 209 243 132 253 224 218 224 211 265 279 246 212 192 187 175 162 156 186 182 182 174 151 156 150 142 142 160 184 183 194 194 160 153 133 138 129 126 139 140 136 134 140 142 139 133